Location: Lake Sonoma
(38.7200°N, 123.0564°W)
Time: 00:02:54
(UTC-08:00)

ISS - All Passes

Search period start: 05 March 2015 00:00
Search period end: 15 March 2015 01:00
Orbit: 394 x 406 km, 51.6° (Epoch: 04 March)

Date Brightness Start Highest point End Pass type
(mag) Time Alt. Az. Time Alt. Az. Time Alt. Az.
05 Mar - 07:27:57 10° SSW 07:31:00 41° SE 07:34:04 10° ENE daylight
05 Mar - 09:04:50 10° W 09:07:30 23° NNW 09:10:08 10° NNE daylight
05 Mar - 12:21:39 10° N 12:22:24 11° NNE 12:23:12 10° NNE daylight
05 Mar - 13:56:34 10° NW 13:59:33 35° NNE 14:02:33 10° E daylight
05 Mar - 15:33:13 10° W 15:35:48 22° SW 15:38:21 10° S daylight
06 Mar - 06:35:00 10° S 06:37:22 20° SE 06:39:49 10° E daylight
06 Mar - 08:10:32 10° WSW 08:13:35 38° NNW 08:16:37 10° NE daylight
06 Mar - 09:49:39 10° NNW 09:50:41 11° NNW 09:51:40 10° N daylight
06 Mar - 13:03:02 10° NNW 13:05:36 21° NNE 13:08:10 10° E daylight
06 Mar - 14:39:01 10° WNW 14:42:07 47° SW 14:45:13 10° SSE daylight
07 Mar - 07:16:25 10° SW 07:19:38 78° NW 07:22:51 10° NE daylight
07 Mar - 08:54:30 10° WNW 08:56:27 15° NNW 08:58:21 10° NNE daylight
07 Mar - 12:09:30 10° NNW 12:11:25 15° NNE 12:13:21 10° ENE daylight
07 Mar - 13:45:01 10° NW 13:48:13 78° NE 13:51:26 10° SE daylight
08 Mar - 07:22:32 10° SSW 07:25:38 47° SE 07:28:45 10° ENE daylight
08 Mar - 08:59:34 10° W 09:02:08 21° NNW 09:04:41 10° NNE daylight
08 Mar - 12:16:03 10° N 12:17:01 11° NNE 12:18:02 10° NNE daylight
08 Mar - 13:51:03 10° NW 13:54:05 38° NNE 13:57:08 10° ESE daylight
08 Mar - 15:27:51 10° W 15:30:17 20° SW 15:32:39 10° S daylight
09 Mar - 06:29:01 10° S 06:31:34 22° SE 06:34:10 10° E visible
09 Mar - 08:04:47 10° W 08:07:47 35° NNW 08:10:48 10° NE daylight
09 Mar - 09:44:04 10° NNW 09:44:54 11° NNW 09:45:41 10° N daylight
09 Mar - 12:57:06 10° NNW 12:59:43 23° NNE 13:02:23 10° E daylight
09 Mar - 14:33:07 10° WNW 14:36:11 41° SW 14:39:13 10° SSE daylight
10 Mar - 05:36:46 10° SE 05:37:25 11° SE 05:38:13 10° ESE visible
10 Mar - 07:10:11 10° WSW 07:13:24 70° NW 07:16:37 10° NE daylight
10 Mar - 08:48:24 10° NW 08:50:14 14° NNW 08:52:02 10° NNE daylight
10 Mar - 12:03:07 10° NNW 12:05:08 15° NNE 12:07:10 10° ENE daylight
10 Mar - 13:38:39 10° NW 13:41:53 87° NE 13:45:05 10° SE daylight
11 Mar - 06:15:50 10° SW 06:18:57 52° SE 06:22:07 10° ENE visible
11 Mar - 07:53:00 10° WNW 07:55:29 20° NNW 07:57:58 10° NNE daylight
11 Mar - 11:09:12 10° N 11:10:19 11° NNE 11:11:30 10° NE daylight
11 Mar - 12:44:16 10° NW 12:47:20 42° NNE 12:50:24 10° ESE daylight
11 Mar - 14:21:10 10° W 14:23:28 18° SW 14:25:41 10° S daylight
12 Mar - 05:21:50 10° S 05:24:28 24° SE 05:27:09 10° ENE visible
12 Mar - 06:57:44 10° W 07:00:42 33° NNW 07:03:40 10° NE visible
12 Mar - 08:37:10 10° NNW 08:37:49 10° NNW 08:38:24 10° N daylight
12 Mar - 11:49:52 10° NNW 11:52:34 24° NNE 11:55:16 10° E daylight
12 Mar - 13:25:57 10° WNW 13:28:57 37° SW 13:31:56 10° SSE daylight
13 Mar - 04:28:50 10° SSE 04:29:54 11° SE 04:31:07 10° ESE visible
13 Mar - 06:02:41 10° WSW 06:05:52 64° NW 06:09:05 10° NE visible
13 Mar - 07:40:57 10° NW 07:42:43 14° NNW 07:44:25 10° NNE daylight
13 Mar - 10:55:28 10° NNW 10:57:33 16° NNE 10:59:40 10° ENE daylight
13 Mar - 12:31:02 10° NW 12:34:14 87° SW 12:37:27 10° SE daylight
14 Mar - 05:07:51 10° SW 05:11:00 57° SE 05:14:10 10° ENE visible
14 Mar - 06:45:05 10° WNW 06:47:32 19° NNW 06:49:58 10° NNE visible
14 Mar - 10:01:06 10° N 10:02:19 12° NNE 10:03:36 10° NE daylight
14 Mar - 11:36:11 10° NW 11:39:17 44° NNE 11:42:23 10° ESE daylight
14 Mar - 13:13:10 10° W 13:15:22 17° SW 13:17:28 10° S daylight
